Flag for U.S.A. Weather past 2 weeks in Pueblo, Colorado, U.S.A.

Now
39 °F

Clear.


Feels Like: 33 °F
Forecast: 36 / 78 °F
Wind: 8 mph from North

Location: Pueblo Memorial Airport


UV Index: 5 (Moderate)

Visibility: 10 mi


Pressure: 30.00 "Hg

Humidity: 86%

Dew point: 35 °F

Location of PuebloLocation

Historic Weather in Pueblo

°F

Pueblo temperature yesterday

Maximum temperature yesterday: 61 °F (at 4:53 PM)
Minimum temperature yesterday: 38 °F (at 1:53 AM)
Average temperature yesterday: 48 °F

Past Weeks' High & Low Weather Summary

 TemperatureHumidityPressure
High81 °F (Apr 11, 4:53 PM)100% (Apr 3, 7:03 AM)30.42 "Hg (Apr 3, 7:03 AM)
Low25 °F (Apr 13, 10:53 PM)6% (Apr 9, 3:53 PM)29.42 "Hg (Apr 12, 3:53 PM)
Average48 °F54%29.92 "Hg
* Reported Apr 3 2:53 AM — Apr 18 2:53 AM, Pueblo, Weather by CustomWeather, © 2014

Note: Actual official high and low records may vary slightly from our data, if they occured in-between our weather recording intervals... More about our weather records

Advertising

Historic Weather Conditions — Data for Previous 24 hours

 ConditionsComfort  
Time TempWeatherWind HumidityBarometerVisibility
2:53 AM
Apr 18
39 °FClear.8 mph86%30.00 "Hg10 mi
1:53 AM41 °FClear.7 mph82%30.02 "Hg10 mi
12:53 AM43 °FClear.8 mph79%30.01 "Hg10 mi
11:53 PM
Apr 17
45 °FClear.8 mph74%30.01 "Hg10 mi
10:53 PM47 °FClear.10 mph69%30.01 "Hg10 mi
9:53 PM49 °FClear.7 mph61%30.03 "Hg10 mi
8:53 PM51 °FClear.9 mph56%30.01 "Hg10 mi
7:53 PM57 °FSunny.9 mph41%29.98 "Hg10 mi
6:53 PM60 °FSunny.14 mph33%29.97 "Hg10 mi
5:53 PM61 °FSunny.15 mph34%29.97 "Hg10 mi
4:53 PM61 °FSunny.16 mph36%29.98 "Hg10 mi
3:53 PM60 °FSunny.7 mph39%30.01 "Hg10 mi
2:53 PM58 °FSunny.6 mph44%30.04 "Hg10 mi
1:53 PM55 °FSunny.10 mph49%30.08 "Hg10 mi
12:53 PM52 °FPartly sunny.5 mph53%30.11 "Hg10 mi
11:53 AM50 °FPassing clouds.10 mph63%30.14 "Hg10 mi
10:53 AM47 °FScattered clouds.9 mph69%30.17 "Hg10 mi
9:53 AM43 °FOvercast.9 mph79%30.19 "Hg10 mi
8:53 AM41 °FBroken clouds.8 mph86%30.19 "Hg10 mi
7:53 AM39 °FOvercast.No wind89%30.19 "Hg10 mi
6:53 AM38 °FOvercast.5 mph93%30.15 "Hg10 mi
5:53 AM38 °FOvercast.5 mph97%30.12 "Hg10 mi
4:53 AM38 °FOvercast.5 mph93%30.11 "Hg10 mi
Weather by CustomWeather, © 2014

See weather overview